sat.trackr.live / text

‹ back to catalog

STARLINK-2469

NORAD 48128 · 2021-027AN

PAYLOAD ACTIVE UNKNOWN

§ Identity

Operator
Country
US
Launch date
2021-04-07
Launch site
AFETR
Launch vehicle
Mass (kg)
RCS (m²)

Purposes: comms

External: N2YO · Heavens-Above · Gunter

§ Orbital elements

Epoch: 2026-05-25T04:31:33.933216Z

Period
94.47 min
Inclination
53.0985°
Eccentricity
0.0004044
Mean motion
15.24274962 rev/d
Perigee alt
490.2 km
Apogee alt
495.7 km
Semi-major
6,871.1 km
B*
2.3800e-3
RAAN
110.0347°
Arg perigee
37.3324°
Mean anomaly
322.7954°
Rev number
28,504

§ Raw data

STARLINK-24691 48128U 21027AN  26145.18858719  .00059021  00000+0  23800-2 0  99912 48128  53.0985 110.0347 0004044  37.3324 322.7954 15.24274962285048

JSON: /api/v1/satellites/48128 · /tle

For live sub-satellite position, see the globe view (requires WebGL).

§ Visibility from observer

Set your observer location to see the next 7 days of passes ≥ 10°. The values pass through the URL so the page stays shareable.

No JS? Fill the form by hand. The geolocation button needs JavaScript.